Theta_e
312 313 315 313 308 309 308 307 306 306 309 309 308 309 304 303 297 294 292 291 290 290 291 291 291 291 291 290 290 289 289 289 288 287 286 285 285 284 284 283 283 283 286 287
311 314 313 311 308 308 308 309 308 307 307 307 307 306 305 302 300 297 294 290 289 290 289 290 291 291 291 290 290 289 289 289 287 286 285 284 283 283 282 282 281 281 281 282
314 314 307 309 308 308 308 310 308 308 306 304 304 304 306 302 299 294 293 291 289 289 289 289 290 291 290 290 289 289 288 288 286 285 284 283 282 282 282 281 280 280 280 280
309 308 308 308 308 308 308 306 306 306 305 305 303 306 304 298 299 295 293 289 289 289 289 289 290 290 290 290 289 289 288 287 286 285 283 282 281 281 281 280 279 279 279 279
313 306 307 307 307 307 307 304 304 305 304 304 303 303 303 298 299 296 294 290 288 288 288 288 290 290 290 289 289 288 287 286 286 284 283 282 280 280 279 279 279 278 278 278
309 305 305 306 307 306 305 305 304 302 301 304 303 303 302 297 299 298 295 289 289 288 287 288 290 290 290 289 288 288 286 286 285 284 282 281 280 279 279 278 278 278 277 278
309 307 305 306 307 306 306 303 308 308 304 310 299 301 308 301 297 297 295 290 288 287 287 288 288 288 289 288 288 287 286 285 284 283 281 280 279 278 278 278 277 277 276 277
311 312 305 304 305 307 305 303 309 310 310 314 301 304 304 295 293 295 294 290 288 287 287 287 287 288 288 287 287 286 285 284 283 282 280 279 278 278 277 277 276 276 276 275
309 309 300 300 301 302 303 302 301 303 286 295 300 299 299 292 291 289 289 289 288 287 287 287 287 288 287 287 287 285 284 283 282 280 279 278 277 276 277 276 276 275 275 274
309 310 301 297 298 298 301 299 302 300 308 306 303 302 306 293 291 289 289 289 287 287 287 287 287 287 287 287 286 284 283 282 280 279 277 276 276 275 276 275 275 275 274 274
302 307 303 297 298 302 296 298 297 299 307 309 309 313 298 296 294 290 290 289 288 288 287 287 286 287 287 286 284 283 281 280 279 277 276 275 274 274 275 274 274 274 273 273
302 302 305 300 298 295 299 300 300 304 306 303 305 311 295 296 295 292 290 289 287 287 287 286 286 286 285 284 282 281 280 278 277 276 274 274 273 273 274 274 274 273 273 273
300 302 304 307 300 294 295 294 299 298 299 306 305 311 294 293 291 291 289 288 287 287 286 286 285 284 283 282 281 279 278 277 275 274 273 272 272 273 273 273 273 272 272 272
303 302 308 313 311 300 297 293 294 300 304 306 306 306 305 296 292 289 288 287 287 286 286 285 283 282 282 280 279 278 276 275 274 272 272 271 272 272 273 272 272 271 270 270
300 304 302 307 308 303 305 307 296 298 301 305 308 308 307 306 300 290 289 287 286 286 286 284 283 281 280 279 277 276 275 273 272 271 271 271 272 272 272 271 270 270 269 269
296 304 302 304 304 302 304 305 304 304 304 304 304 304 304 303 294 289 288 287 288 287 285 284 283 281 279 277 276 275 273 272 271 270 271 271 271 271 270 269 268 268 268 268
297 300 304 310 305 303 305 305 304 305 304 304 304 304 303 300 291 289 287 288 288 286 284 282 280 278 277 275 274 272 271 270 270 270 269 269 270 269 268 267 267 267 267 268
299 301 304 308 303 308 310 297 300 302 302 301 301 301 298 293 290 288 288 287 286 284 282 280 278 276 275 273 272 270 270 269 269 268 268 268 268 267 266 266 265 266 268 269
304 306 309 308 310 308 308 305 296 296 303 298 300 300 298 288 287 287 285 284 283 281 279 277 275 274 273 271 270 269 268 268 267 267 267 266 266 265 264 264 265 267 267 268
301 302 308 302 304 309 310 290 289 293 300 298 297 297 289 288 290 287 283 282 280 278 277 275 274 273 271 270 268 267 267 266 266 265 265 264 264 263 263 265 266 266 267 268
300 301 306 308 309 301 300 289 290 300 307 292 293 291 289 290 290 286 282 280 279 277 275 273 273 271 269 268 267 266 266 265 264 263 263 262 262 262 265 265 265 266 267 268
300 301 300 303 301 305 295 289 297 297 290 289 288 288 289 286 284 284 282 279 277 275 273 272 271 269 268 267 265 265 264 263 262 262 260 260 261 264 264 264 265 265 266 268
306 304 301 300 301 297 293 292 293 291 290 289 289 288 288 285 284 282 280 278 276 274 273 271 269 268 267 265 264 263 263 261 260 259 259 261 263 264 264 264 265 265 266 267
296 298 301 300 303 298 292 293 292 290 291 290 289 288 287 287 284 282 279 277 275 273 271 269 267 266 265 264 263 262 260 259 258 258 259 262 263 263 263 264 264 265 266 266
302 299 302 301 302 298 298 293 292 291 290 289 288 287 288 286 285 282 279 276 274 272 269 267 266 265 264 262 261 260 259 257 257 258 260 261 262 262 263 263 263 265 265 267
299 304 303 307 302 303 302 293 292 291 290 289 288 286 284 286 283 280 277 274 272 270 267 265 264 263 262 261 260 259 258 257 257 257 258 260 260 261 262 262 262 263 265 266
Wind_Speed
3 3 5 8 6 4 3 5 7 5 5 4 10 17 12 16 8 9 9 9 9 9 11 12 8 9 12 18 15 24 27 28 28 25 27 27 28 31 30 32 33 35 33 34
6 3 4 3 3 4 5 6 8 9 4 5 10 12 9 16 20 20 17 11 10 6 7 10 5 7 9 14 13 24 24 20 25 25 25 24 28 26 28 29 33 35 35 37
5 2 6 3 3 4 4 5 6 8 4 5 8 7 18 3 8 7 9 10 8 10 9 7 4 3 7 13 12 19 22 22 25 29 29 29 29 28 30 32 33 33 36 38
6 1 4 5 5 7 6 2 5 4 4 3 4 8 4 6 15 12 14 10 10 9 8 6 5 1 5 11 12 14 23 20 24 28 28 26 26 30 31 34 36 37 37 38
7 6 5 6 6 7 7 1 4 3 4 3 6 5 6 4 10 15 16 14 10 9 9 8 6 3 6 10 13 13 19 20 24 25 25 27 26 28 32 34 35 35 35 32
6 0 5 6 2 1 2 4 4 3 3 2 7 9 5 6 11 9 15 12 12 9 8 8 6 5 10 11 12 14 17 22 23 28 27 26 28 29 32 35 34 35 36 32
1 4 1 2 2 2 3 4 4 4 2 7 3 4 16 8 7 11 22 17 12 10 8 7 6 8 10 13 12 16 20 22 27 26 26 25 28 29 30 30 33 39 37 33
4 7 8 5 5 6 5 7 4 6 4 14 4 8 6 5 8 7 12 14 10 9 8 8 8 9 12 14 11 18 22 24 26 26 27 28 28 28 28 31 34 36 36 39
7 7 2 0 1 4 4 5 1 1 2 3 5 7 6 4 2 7 12 12 11 9 8 8 9 10 13 11 13 25 26 28 26 29 30 28 27 30 32 33 35 36 38 38
4 6 2 2 0 1 4 4 3 1 3 7 6 9 12 8 11 9 12 14 11 9 8 7 7 11 11 9 19 22 23 25 29 28 27 29 29 31 32 32 37 37 38 37
6 5 2 4 8 10 2 3 3 2 4 4 4 14 6 16 18 19 18 16 12 12 8 7 8 9 7 11 16 19 21 26 26 27 29 31 32 31 33 34 37 36 38 36
7 5 6 13 1 2 2 9 11 5 6 5 3 17 5 11 12 19 17 14 10 8 8 7 5 7 9 12 15 19 21 23 26 28 31 31 32 34 34 34 36 37 37 35
9 4 2 7 2 3 6 6 8 0 0 14 6 13 2 3 7 14 15 12 10 8 7 4 4 7 10 11 15 19 22 24 25 28 29 31 32 34 34 37 38 37 37 36
13 6 9 16 12 6 6 8 11 18 13 17 26 37 28 11 7 6 7 9 9 8 7 4 4 7 9 9 13 19 22 23 27 28 30 31 32 34 36 37 36 37 36 36
7 10 8 21 16 3 16 21 13 23 26 20 40 33 31 24 13 16 18 12 9 7 6 6 6 5 5 9 16 20 22 26 27 28 30 31 33 35 34 36 36 36 35 34
3 7 6 15 9 12 22 26 23 27 31 28 37 39 41 26 5 7 14 14 11 8 8 7 6 2 7 12 17 20 23 26 27 28 30 33 33 34 35 36 36 36 34 31
9 5 5 19 3 2 15 25 27 23 24 22 23 38 31 15 8 11 14 16 13 10 8 5 1 3 9 12 16 19 24 26 26 28 31 32 34 35 36 36 36 35 34 33
9 7 4 7 4 8 17 4 7 20 26 19 24 26 14 5 3 7 11 13 11 10 6 3 1 6 9 12 14 19 22 24 26 28 30 32 34 35 36 36 36 36 34 33
13 11 8 7 12 11 29 10 9 9 29 23 28 27 18 8 5 1 5 6 8 7 6 6 5 4 10 12 16 18 20 22 24 26 31 33 34 35 35 36 37 37 37 36
11 11 9 4 6 11 22 4 6 7 17 15 23 20 10 12 7 5 10 8 9 10 10 7 5 4 9 13 16 18 20 23 23 28 32 33 32 32 33 35 38 38 37 35
5 4 19 17 10 10 13 10 7 5 15 5 10 10 15 11 5 7 14 8 10 11 11 8 5 6 8 12 15 17 19 20 26 31 33 33 31 31 32 35 36 35 36 34
12 11 6 6 4 16 15 8 13 4 2 5 5 8 11 8 10 16 14 13 11 9 10 6 4 6 9 11 16 17 19 24 27 30 33 33 31 30 32 34 34 32 32 30
8 13 9 14 11 3 18 6 17 4 6 6 7 7 11 14 10 15 11 11 9 10 10 6 5 4 6 10 12 16 21 24 28 32 31 29 29 29 30 32 32 29 28 26
6 7 6 3 24 20 15 8 13 7 6 5 6 12 14 13 13 11 11 10 9 10 9 6 6 4 6 11 11 13 19 23 28 29 27 27 28 31 29 29 28 27 26 27
8 14 15 12 20 5 16 19 13 12 8 7 7 9 15 12 12 12 9 9 8 12 10 9 6 2 4 9 11 16 21 24 24 22 22 23 25 28 29 26 29 29 26 29
10 17 11 15 9 13 8 21 19 17 16 16 14 6 3 10 13 10 10 11 13 12 12 9 7 3 3 8 11 17 20 21 22 19 21 23 24 26 27 29 29 28 29 29
Wind_Direction
342 68 247 247 209 206 219 238 235 246 237 220 235 245 212 199 204 199 198 192 182 181 177 160 121 54 23 17 9 3 3 3 356 355 350 344 336 331 328 326 324 321 315 317
6 231 219 173 234 246 233 264 265 286 249 184 271 250 239 185 212 203 190 191 184 185 179 175 124 46 18 8 358 2 358 349 346 347 344 338 332 326 322 322 319 316 316 314
176 253 123 178 236 255 228 213 251 239 339 289 288 248 244 205 222 179 189 190 183 182 181 177 141 43 355 354 347 353 347 338 341 341 340 337 331 329 327 324 319 315 312 309
229 208 181 220 234 174 278 216 260 286 1 254 343 294 260 194 224 200 187 192 186 185 177 166 157 277 324 332 329 335 340 332 336 338 334 329 331 321 314 313 313 312 310 305
254 175 188 218 227 164 238 9 267 262 256 348 235 251 245 150 239 211 196 192 189 191 173 172 178 251 292 305 313 315 330 326 331 330 329 327 316 308 306 310 306 306 308 300
246 277 183 210 142 151 36 326 294 53 113 231 232 197 222 192 219 197 197 189 189 183 181 179 195 235 264 289 290 309 322 327 329 335 329 314 305 308 310 306 303 310 307 299
326 219 39 153 131 28 88 55 311 330 343 239 168 224 261 241 229 198 194 182 186 180 177 190 210 232 269 279 271 316 325 329 336 329 319 310 307 305 299 303 304 306 302 299
212 300 177 181 199 183 177 172 177 266 244 295 319 245 253 289 296 219 175 168 172 179 185 199 217 240 267 274 281 321 337 333 329 323 320 315 304 300 296 303 301 296 291 296
178 263 116 100 168 158 179 186 168 237 100 11 239 280 284 78 57 118 151 167 184 189 194 209 223 243 267 261 315 339 336 330 325 324 318 309 305 306 300 304 302 295 291 292
213 288 215 170 163 342 164 157 76 339 283 271 257 270 247 200 206 184 185 193 196 197 202 209 230 258 287 311 328 330 328 324 323 317 311 312 308 306 304 303 300 296 292 291
144 173 180 117 208 183 141 212 204 208 159 235 299 280 213 195 204 191 201 195 191 195 198 209 232 280 298 299 311 319 327 324 319 318 316 314 308 309 306 302 299 296 296 292
196 168 204 211 231 305 207 202 178 187 219 222 240 261 199 202 202 195 202 192 190 188 193 209 238 276 271 286 312 326 325 323 323 320 315 312 309 311 307 303 300 300 296 294
178 209 323 317 6 347 221 208 213 320 301 230 237 269 219 162 161 195 188 182 185 184 190 223 249 262 280 297 318 326 329 326 320 316 315 312 312 312 306 305 303 302 299 296
149 187 184 240 236 135 212 194 206 216 236 255 239 264 259 244 195 186 190 183 185 184 193 222 258 267 272 297 323 333 328 325 321 318 315 313 314 311 307 306 305 304 301 296
171 231 195 248 261 183 265 255 194 220 236 237 262 263 265 267 232 202 198 182 176 182 199 211 239 245 271 331 341 338 329 324 321 317 315 314 313 310 309 309 308 306 303 299
195 249 157 266 218 232 257 260 243 243 248 248 254 266 267 279 230 146 179 174 178 187 195 214 224 310 348 352 340 330 322 321 322 318 316 315 315 315 314 313 312 309 305 303
166 179 146 256 114 29 275 248 235 246 243 231 244 245 263 257 188 179 174 176 178 180 191 198 153 2 0 345 329 319 319 319 323 320 318 318 318 317 317 316 315 310 307 305
167 181 162 258 98 237 264 113 192 219 248 221 245 254 241 185 139 147 164 160 166 172 166 164 103 17 351 332 327 325 323 324 322 320 319 321 320 318 318 319 316 311 311 310
217 197 228 228 229 299 291 232 176 178 271 202 226 243 247 123 81 5 149 146 156 150 156 146 81 18 345 344 336 325 322 327 325 323 320 320 320 318 318 318 316 316 314 311
213 232 213 166 207 227 263 120 138 138 275 191 206 227 146 144 185 202 172 139 137 148 148 117 83 30 2 347 336 332 333 329 321 324 319 318 318 317 316 319 318 315 314 311
157 201 218 231 243 268 227 157 154 149 261 163 178 162 158 185 198 148 144 139 150 152 127 112 71 31 0 348 342 339 330 322 322 321 317 318 320 319 323 322 318 320 318 315
169 168 194 209 219 261 142 120 189 201 50 133 137 160 166 133 129 141 149 153 153 138 124 108 82 31 0 354 348 334 326 326 323 321 321 322 324 328 328 326 323 326 323 322
193 196 183 193 211 212 180 189 205 157 155 179 156 154 147 143 156 159 161 150 138 137 132 120 76 27 354 353 351 326 326 329 324 327 325 325 330 334 334 333 328 330 331 331
242 186 228 112 248 227 203 208 189 176 172 165 152 153 161 164 159 155 146 143 145 142 137 125 86 38 354 350 340 331 331 330 331 327 325 333 338 336 339 339 335 334 337 332
191 161 212 247 265 358 226 214 187 180 165 153 144 163 174 153 163 154 148 149 143 140 137 128 116 91 8 341 337 344 340 344 337 330 331 338 341 339 338 343 339 339 343 342
183 204 194 229 199 210 232 197 194 184 178 169 162 150 155 157 157 150 150 147 145 147 142 130 127 110 20 348 346 348 351 353 349 336 341 342 343 341 341 341 340 346 353 356